{"data":{"norad_id":49093,"intl_designator":"2021-075U","name":"ONEWEB-0305","alt_names":[],"object_type":"PAYLOAD","status":"ACTIVE","operator":null,"country":"UK","launch_date":"2021-08-21","launch_site_code":"TYMSC","launch_vehicle":null,"mission":null,"orbit_class":"UNKNOWN","rcs_meters":null,"size_class":null,"mass_kg":null,"dimensions":null,"purposes":["comms"],"wikipedia_slug":null,"has_3d_model":false,"image_url":null,"decayed_at":null,"tle_current":{"epoch":"2026-05-25T01:50:51.804672Z","epoch_age_seconds":58588,"freshness":"FRESH","line1":"1 49093U 21075U   26145.07698848  .00000022  00000+0  24410-4 0  9996","line2":"2 49093  87.9161  10.4488 0002104  94.0529 266.0843 13.17650750230560","mean_motion":13.1765075,"eccentricity":0.0002104,"inclination_deg":87.9161,"raan_deg":10.4488,"arg_perigee_deg":94.0529,"mean_anomaly_deg":266.0843,"bstar":2.441e-5,"rev_number":23056,"period_min":109.28540814021,"perigee_km":1192.1134397545,"apogee_km":1195.2996715227,"semimajor_km":7571.8435556386,"source":"CELESTRAK","updated_at":"2026-05-25T13:38:22.484641Z"}}}